User: anonymous   Login
Location: Oshawa
(43.9000°N, 78.8670°W)
Time: 10:02:47
(UTC-04:00)
Language:

Thor Agena Rocket - Orbit

View from above orbital plane
View from above orbital plane
View from above satellite
View from above satellite

Ground track
Ground track

The orbit data is extracted from the following two-line orbital elements,

1   733U 64002A   17116.67738087 +.00000038 +00000-0 +31897-4 0  9990
2   733 099.1245 299.4157 0033337 329.8541 030.0721 14.32268009774515
Epoch (UTC): 26 April 2017 16:15:25
Eccentricity: 0.0033337
inclination: 99.1245°
perigee height: 760 km
apogee height: 808 km
right ascension of ascending node: 299.4157°
argument of perigee: 329.8541°
revolutions per day: 14.32268009
mean anomaly at epoch: 30.0721°
orbit number at epoch: 77451

The dashed part of the orbit path shows where the satellite is in the earth's shadow,  

DLR